Date,TemperatureHighF,TemperatureAvgF,TemperatureLowF,DewpointHighF,DewpointAvgF,DewpointLowF,HumidityHigh,HumidityAvg,HumidityLow,PressureMaxIn,PressureMinIn,WindSpeedMaxMPH,WindSpeedAvgMPH,GustSpeedMaxMPH,PrecipitationSumIn
2012-1-1,76.0,61.2,50.8,61.0,54.3,47.6,93,79,55,30.26,30.13,1,0,1,0.00
2012-1-2,68.8,60.2,55.8,57.8,51.0,37.0,93,75,34,30.17,30.07,0,0,1,0.00
2012-1-4,60.5,46.9,29.7,36.5,31.4,22.4,76,57,34,30.42,30.29,0,0,0,0.00
2012-1-5,67.5,42.4,32.0,50.2,34.8,26.3,88,75,52,30.31,30.14,0,0,0,0.00
2012-1-6,51.1,44.3,41.4,49.4,40.0,37.4,94,85,81,30.22,30.16,0,0,0,0.00
2012-1-7,71.3,65.2,52.9,56.3,53.5,48.3,84,67,58,30.17,30.10,1,0,1,0.00
2012-1-8,74.2,58.6,46.4,58.1,51.0,43.1,91,77,55,30.23,30.15,2,0,2,0.00
2012-1-9,75.2,60.9,50.8,61.5,54.4,47.6,93,80,61,30.22,30.09,0,0,0,0.00
2012-1-10,74.9,63.4,53.6,62.4,56.8,50.5,92,80,62,30.12,29.95,2,0,2,0.00
2012-1-11,71.8,64.4,58.7,65.7,60.1,55.4,90,86,80,29.97,29.73,2,0,2,0.24
2012-1-12,73.8,62.8,52.2,62.7,56.6,49.6,93,81,63,29.92,29.82,3,0,3,0.00
2012-1-13,63.7,56.8,49.0,59.3,45.0,35.8,87,66,43,30.22,29.92,2,0,3,0.00
2012-1-14,57.6,46.9,38.3,36.8,32.8,30.3,76,60,36,30.36,30.20,4,0,4,0.00
2012-1-15,67.9,48.7,34.2,43.7,37.1,30.3,89,68,36,30.44,30.32,2,0,4,0.00
2012-1-16,68.0,54.3,41.2,53.3,46.1,36.3,87,75,56,30.46,30.34,4,0,4,0.00
2012-1-17,73.8,59.1,47.2,59.0,51.7,43.6,88,77,60,30.33,30.15,1,0,2,0.00
2012-1-18,74.7,61.6,50.9,61.6,55.8,47.4,90,82,63,30.15,29.94,4,1,4,0.03
2012-1-19,70.7,57.5,46.4,60.0,45.5,40.5,87,67,39,30.18,30.02,2,0,2,0.00
2012-1-20,74.7,57.6,42.7,53.8,47.5,38.6,89,71,45,30.19,30.10,2,0,2,0.00
2012-1-21,76.9,61.6,50.4,59.5,53.4,46.3,90,76,52,30.16,30.01,2,0,4,0.00
2012-1-22,74.5,61.2,49.3,60.5,54.1,45.9,93,79,53,30.15,30.05,2,0,2,0.00
2012-1-23,77.2,65.0,54.2,65.2,58.6,51.0,93,81,64,30.16,30.04,0,0,0,0.00
2012-1-24,77.9,67.9,59.2,66.2,61.5,56.2,91,81,64,30.18,30.09,0,0,0,0.00
2012-1-25,79.9,67.5,56.5,64.4,59.4,53.3,94,77,54,30.18,30.09,0,0,0,0.00
2012-1-26,80.5,68.8,58.1,66.3,61.0,54.6,93,77,57,30.10,29.95,0,0,0,0.00
2012-1-27,72.4,67.6,57.8,67.2,62.6,53.3,91,84,75,30.07,29.91,0,0,0,0.06
2012-1-28,72.9,59.6,47.3,55.7,51.2,44.0,91,75,54,30.19,30.05,0,0,0,0.00
2012-1-29,73.3,58.7,47.9,55.9,50.4,44.8,91,75,54,30.32,30.17,0,0,0,0.00
2012-1-30,72.2,57.3,43.0,52.5,47.7,39.1,87,72,49,30.39,30.29,0,0,0,0.00
2012-1-31,74.2,59.2,46.4,56.7,50.5,42.5,89,74,54,30.36,30.26,0,0,0,0.00
2012-2-1,76.9,63.8,52.2,60.0,55.1,48.1,91,75,54,30.28,30.13,0,0,0,0.00
2012-2-2,78.1,66.2,56.7,62.8,57.8,52.2,90,76,53,30.19,30.08,0,0,0,0.00
2012-2-3,72.7,66.3,60.8,63.4,59.8,57.1,90,80,68,30.25,30.15,0,0,0,0.02
2012-2-4,78.3,67.6,59.2,63.8,59.9,55.4,90,77,59,30.21,30.08,0,0,0,0.00
2012-2-5,79.6,69.8,60.1,67.6,63.3,57.2,91,80,65,30.10,29.97,0,0,0,0.13
2012-2-6,76.5,70.6,64.4,69.9,66.2,62.0,93,86,77,30.09,30.00,0,0,0,0.45
2012-2-7,69.7,66.0,61.9,64.5,62.2,58.1,91,88,82,30.08,30.00,0,0,0,0.03
2012-2-8,76.7,64.4,57.1,60.9,55.7,51.5,90,75,48,30.11,30.00,0,0,0,0.00
2012-2-9,69.5,61.6,54.0,57.4,54.1,49.2,85,77,65,30.16,30.07,0,0,0,0.00
2012-2-10,77.8,66.8,58.7,67.5,61.6,54.8,91,84,68,30.12,29.88,0,0,0,1.23
2012-2-11,70.6,61.2,50.2,61.8,49.7,29.1,90,68,40,30.12,29.85,0,0,0,0.05
2012-2-12,56.3,45.2,34.2,37.4,28.5,18.4,78,54,32,30.35,30.13,0,0,0,0.00
2012-2-13,67.3,48.6,32.6,47.4,37.5,27.5,85,68,41,30.29,30.12,0,0,0,0.00
2012-2-14,76.3,59.4,45.0,58.3,50.2,41.0,92,73,50,30.13,30.02,0,0,0,0.00
2012-2-15,81.2,67.8,55.3,64.0,58.4,51.3,92,73,54,30.20,30.09,0,0,0,0.00
2012-2-16,81.4,70.9,63.4,66.2,62.0,58.8,88,74,56,30.18,30.02,0,0,0,0.00
2012-2-17,75.2,69.1,64.1,68.6,64.5,59.3,91,85,76,30.07,29.99,0,0,0,0.00
2012-2-18,79.6,70.5,66.1,68.9,65.0,62.5,92,83,67,30.02,29.87,0,0,0,0.02
2012-2-19,82.3,71.6,63.9,71.1,63.2,54.9,91,76,63,29.90,29.73,0,0,0,0.00
2012-2-20,71.6,60.5,53.8,55.3,50.5,47.4,84,71,48,30.22,29.90,0,0,0,0.00
2012-2-21,74.5,61.9,49.0,57.3,52.1,44.7,91,72,49,30.24,30.10,0,0,0,0.00
2012-2-22,78.5,66.7,58.0,66.5,60.1,54.1,90,80,62,30.12,29.89,0,0,0,1.77
2012-2-23,83.5,75.8,65.5,71.6,66.5,62.2,91,74,61,29.94,29.85,0,0,0,0.00
2012-2-24,86.8,75.5,65.2,70.0,65.3,61.6,91,72,47,29.99,29.90,0,0,0,0.00
2012-2-25,72.5,65.4,56.2,67.2,46.1,34.9,85,52,31,30.27,29.98,0,0,0,0.00
2012-2-26,67.5,61.0,53.6,61.0,53.1,40.6,88,75,56,30.34,30.25,0,0,0,0.03
2012-2-27,77.8,70.6,64.6,69.7,65.8,61.0,90,85,72,30.31,30.20,0,0,0,0.19
2012-2-28,76.0,72.1,65.9,67.9,65.3,62.1,90,79,71,30.29,30.20,0,0,0,0.00
2012-2-29,84.1,78.0,66.1,69.4,67.5,63.0,90,71,54,30.23,30.07,0,0,0,0.03
2012-3-1,86.6,75.1,67.0,69.8,65.8,62.7,91,74,54,30.10,29.96,0,0,0,0.00
2012-3-2,84.6,72.9,63.2,68.9,63.3,59.3,92,73,50,30.05,29.92,0,0,0,0.00
2012-3-3,86.4,76.9,65.7,70.7,65.2,60.9,90,69,44,29.93,29.75,0,0,0,0.00
2012-3-4,74.3,66.1,48.8,69.8,54.1,34.3,89,68,30,30.21,29.65,0,0,0,0.71
2012-3-5,76.3,58.8,41.4,48.9,41.8,35.9,84,57,29,30.35,30.21,0,0,0,0.00
2012-3-6,72.5,62.9,53.1,55.6,51.9,46.8,83,68,53,30.43,30.31,0,0,0,0.00
2012-3-7,74.3,67.3,58.3,61.7,57.2,52.6,84,71,57,30.42,30.31,0,0,0,0.00
2012-3-8,79.9,70.0,59.0,65.6,62.1,55.2,90,77,60,30.30,30.17,0,0,0,0.00
2012-3-9,82.4,73.4,67.9,68.7,66.2,64.2,90,79,59,30.21,30.07,0,0,0,0.00
2012-3-10,80.3,71.8,68.0,68.8,66.1,64.2,90,83,68,30.23,30.10,0,0,0,0.78
2012-3-11,70.6,68.7,67.7,65.4,63.5,61.4,88,84,80,30.31,30.27,0,0,0,0.00
2012-3-12,78.5,69.2,59.9,63.0,60.3,56.8,90,74,58,30.30,30.22,0,0,0,0.00
2012-3-13,80.3,68.7,57.1,64.3,59.0,53.4,88,73,54,30.27,30.16,0,0,0,0.00
2012-3-14,81.2,68.3,58.3,64.0,59.7,54.5,89,75,56,30.22,30.16,0,0,0,0.00
2012-3-15,81.7,70.7,60.7,67.6,62.2,57.4,90,75,58,30.25,30.17,0,0,0,0.00
2012-3-16,82.3,70.8,59.6,66.7,61.0,55.9,89,73,51,30.24,30.14,0,0,0,0.00
2012-3-17,83.5,70.7,58.5,65.5,59.5,54.6,89,69,47,30.24,30.14,0,0,0,0.00
2012-3-18,82.1,69.9,58.3,65.3,59.0,54.5,89,70,48,30.25,30.16,0,0,0,0.00
2012-3-19,81.4,69.8,58.7,65.3,60.1,54.7,91,73,55,30.19,30.08,0,0,0,0.00
2012-3-20,82.1,71.8,61.0,65.4,61.4,56.5,89,71,52,30.13,30.05,0,0,0,0.00
2012-3-21,79.6,71.0,64.1,69.6,64.3,60.2,90,80,66,30.16,30.07,0,0,0,0.16
2012-3-22,83.5,73.8,62.5,68.9,64.0,59.2,89,73,54,30.18,30.06,0,0,0,0.00
2012-3-23,86.6,74.4,63.4,68.0,63.8,59.5,89,71,51,30.13,29.98,0,0,0,0.00
2012-3-24,86.0,75.2,65.5,68.7,65.2,61.2,89,72,53,30.03,29.87,0,0,0,0.02
2012-3-25,84.2,75.2,69.3,66.8,59.9,51.2,89,62,38,29.91,29.78,0,0,0,0.15
2012-3-26,82.1,69.4,58.0,59.0,56.4,53.1,87,65,45,30.02,29.87,0,0,0,0.00
2012-3-27,82.8,69.6,56.2,64.2,56.9,51.2,87,67,40,30.20,30.01,0,0,0,0.02
2012-3-28,84.1,71.6,60.7,65.1,61.1,56.2,87,71,49,30.20,30.06,0,0,0,0.00
2012-3-29,86.0,73.0,60.5,68.5,61.7,56.6,89,69,51,30.08,29.95,0,0,0,0.00
2012-3-30,85.1,73.6,61.9,67.4,60.8,57.3,88,66,47,30.05,29.95,0,0,0,0.00
2012-3-31,84.8,72.4,65.9,67.3,63.2,57.8,85,74,52,29.99,29.83,0,0,0,0.28
2012-4-1,85.5,76.1,65.9,69.1,64.6,61.9,90,69,47,29.93,29.82,0,0,0,0.00
2012-4-2,90.7,80.0,68.0,70.7,63.9,61.1,88,60,42,29.91,29.82,0,0,0,0.00
2012-4-3,91.1,77.4,64.3,70.2,63.8,59.7,90,66,38,29.97,29.87,0,0,0,0.00
2012-4-4,91.6,77.9,63.9,67.5,61.5,58.6,90,60,36,29.96,29.78,0,0,0,0.00
2012-4-5,88.6,78.3,70.6,68.5,65.2,62.6,82,65,48,29.84,29.71,0,0,0,0.00
2012-4-6,85.3,74.5,67.1,71.6,62.5,51.1,87,68,31,29.99,29.72,0,0,0,0.54
2012-4-7,82.3,71.3,63.0,58.5,56.1,53.2,76,60,42,30.18,29.98,0,0,0,0.00
2012-4-8,80.5,68.8,59.0,60.3,55.8,53.2,85,65,44,30.21,30.07,0,0,0,0.00
2012-4-9,82.8,69.2,55.8,63.4,56.0,50.9,90,65,41,30.10,29.98,0,0,0,0.00
2012-4-10,85.9,73.1,59.4,65.7,59.5,54.5,89,65,42,30.08,29.94,0,0,0,0.00
2012-4-11,86.4,74.6,63.0,65.4,59.5,55.4,88,62,37,30.05,29.93,0,0,0,0.00
2012-4-12,84.1,71.4,60.1,63.5,59.0,56.3,87,67,45,30.09,29.96,0,0,0,0.00
2012-4-13,83.3,72.2,61.9,65.2,60.3,55.4,88,68,39,30.16,30.05,0,0,0,0.00
2012-4-14,76.7,70.8,64.1,64.2,61.7,59.0,86,73,61,30.25,30.13,0,0,0,0.00
2012-4-15,82.1,71.2,59.8,65.3,59.9,56.1,88,69,49,30.23,30.16,0,0,0,0.00
2012-4-16,82.4,71.2,58.5,65.1,59.7,54.0,89,69,48,30.22,30.13,0,0,0,0.00
2012-4-17,84.6,72.2,59.2,63.5,59.6,54.9,89,67,47,30.18,30.05,0,0,0,0.00
2012-4-18,86.9,75.1,62.8,67.8,62.8,57.5,88,67,46,30.11,29.95,0,0,0,0.00
2012-4-19,85.9,75.9,67.0,70.4,66.6,62.8,87,74,55,29.99,29.88,0,0,0,0.00
2012-4-20,86.4,77.2,68.4,73.5,68.4,63.2,87,75,56,29.93,29.81,0,0,0,0.78
2012-4-21,0.0,0.0,0.0,-12.3,-12.3,-12.3,55,55,55,29.80,29.80,10,10,10,0.00
2012-5-2,87.5,82.9,74.5,69.8,68.0,66.1,79,61,52,30.11,30.05,0,0,0,0.00
2012-5-3,88.4,75.2,66.1,70.4,66.2,62.4,88,75,50,30.11,30.03,0,0,0,0.00
2012-5-4,88.0,78.3,67.3,70.1,66.8,63.0,87,69,48,30.10,29.99,0,0,0,0.00
2012-5-5,91.8,80.6,68.0,70.0,67.1,63.7,88,66,43,30.03,29.90,0,0,0,0.00
2012-5-6,92.2,82.2,70.4,71.2,67.7,64.5,86,63,43,29.96,29.85,0,0,0,0.00
2012-5-7,89.8,77.4,71.1,73.4,68.3,65.8,87,74,49,29.91,29.86,0,0,0,1.30
2012-5-8,88.9,82.5,73.6,72.7,70.1,67.9,83,67,56,29.91,29.83,0,0,0,0.00
2012-5-9,87.1,79.3,70.2,73.3,70.2,65.8,86,74,59,29.89,29.75,0,0,0,0.39
2012-5-10,86.9,78.7,69.1,69.9,67.1,63.3,88,69,52,29.93,29.78,0,0,0,0.00
2012-5-11,85.1,75.7,64.6,66.0,61.6,58.9,87,64,45,30.13,29.92,0,0,0,0.00
2012-5-12,85.1,75.2,63.4,65.9,61.9,57.4,87,65,46,30.20,30.11,0,0,0,0.00
2012-5-13,83.2,74.7,65.2,68.3,65.1,60.8,89,73,59,30.16,30.04,0,0,0,0.00
2012-5-14,83.5,75.6,70.6,71.2,68.7,65.6,88,80,63,30.07,29.94,0,0,0,0.00
2012-5-15,90.5,79.1,69.7,70.9,68.1,65.8,88,71,48,30.03,29.90,0,0,0,1.93
2012-5-16,78.1,72.9,68.8,73.3,68.5,65.1,88,86,84,30.01,29.93,0,0,0,0.93
2012-5-17,85.0,79.8,70.7,72.5,70.3,65.6,84,73,65,29.93,29.82,0,0,0,0.00
2012-5-18,87.1,76.8,66.1,74.3,68.2,62.4,88,76,54,29.95,29.87,0,0,0,2.45
2012-5-19,86.6,79.4,70.9,70.9,68.5,65.5,87,70,57,30.01,29.92,0,0,0,0.00
2012-5-20,88.0,78.2,67.5,65.9,62.0,51.4,87,61,29,30.01,29.91,0,0,0,0.00
2012-5-21,88.9,77.1,64.8,67.9,64.2,60.2,88,66,43,29.98,29.89,0,0,0,0.00
2012-5-22,91.3,79.9,67.0,71.3,65.1,61.8,87,64,39,29.97,29.83,0,0,0,2.47
2012-5-23,91.1,82.4,71.1,73.8,69.4,64.7,85,66,42,29.92,29.83,0,0,0,0.00
2012-5-24,88.6,82.4,72.5,74.4,72.0,67.8,85,72,61,29.92,29.87,0,0,0,0.00
2012-5-25,90.4,83.7,74.7,75.2,71.9,69.9,86,68,56,30.05,29.91,0,0,0,0.00
2012-5-26,91.4,82.0,70.2,72.6,68.5,66.2,87,66,44,30.05,29.95,0,0,0,0.00
2012-5-27,87.5,78.4,71.5,73.6,69.0,65.7,87,74,54,29.97,29.78,0,0,0,0.69
2012-5-28,88.0,78.0,74.5,75.2,71.7,69.8,88,81,65,29.92,29.79,0,0,0,0.63
2012-5-29,82.8,78.0,73.4,75.4,71.3,69.0,88,80,69,29.92,29.84,0,0,0,0.19
2012-5-30,91.6,85.5,76.0,75.6,72.9,71.0,86,67,55,29.88,29.78,0,0,0,0.00
2012-5-31,92.2,83.1,74.7,74.9,71.5,69.2,87,69,52,29.91,29.81,0,0,0,0.00
2012-6-1,79.2,76.0,73.3,73.6,71.0,69.5,89,85,78,29.95,29.85,0,0,0,0.95
2012-6-2,90.7,85.7,77.8,74.2,70.6,67.3,83,61,51,29.96,29.87,0,0,0,0.03
2012-6-3,90.9,81.7,69.8,68.8,66.0,63.4,86,61,41,30.04,29.93,0,0,0,0.00
2012-6-4,92.9,82.0,69.5,72.3,68.8,64.3,88,66,46,29.98,29.81,0,0,0,0.00
2012-6-5,89.8,80.5,75.2,74.4,72.5,70.5,87,77,57,29.86,29.78,0,0,0,1.79
2012-6-6,83.9,78.3,72.2,75.5,72.2,67.6,89,82,75,29.91,29.87,0,0,0,2.73
2012-6-7,86.2,82.0,78.3,76.3,74.3,72.2,86,78,67,29.95,29.90,0,0,0,0.41
2012-6-8,83.9,81.1,76.7,75.1,73.9,71.8,85,79,74,29.97,29.90,0,0,0,0.00
2012-6-9,86.2,81.9,76.5,76.2,74.6,71.5,86,79,69,30.02,29.93,0,0,0,0.85
2012-6-10,90.5,84.5,74.2,78.4,74.9,68.3,86,73,65,30.17,30.01,0,0,0,2.77
2012-6-11,89.6,84.9,73.8,77.1,74.2,69.4,86,71,64,30.12,30.04,0,0,0,0.00
2012-6-12,92.7,82.3,73.8,74.2,71.2,69.4,87,70,52,30.10,29.92,0,0,0,0.00
2012-6-13,91.8,81.0,72.9,75.4,71.4,67.3,86,74,53,29.98,29.85,0,0,0,1.36
2012-6-14,90.2,82.4,73.3,76.3,73.4,68.7,88,75,63,29.98,29.92,0,0,0,5.74
2012-6-15,87.1,82.7,76.9,75.3,71.2,69.2,81,68,59,30.05,29.99,0,0,0,0.13
2012-6-16,88.0,82.5,73.6,71.7,69.1,66.4,86,65,53,30.08,30.02,0,0,0,0.00
2012-6-17,85.9,80.1,70.9,73.8,68.9,66.2,86,70,56,30.08,29.96,0,0,0,0.09
2012-6-18,88.0,80.7,70.2,70.6,66.8,64.9,86,64,49,30.06,29.97,0,0,0,0.00
2012-6-19,87.1,78.7,67.7,69.2,66.7,63.4,87,68,49,30.09,30.03,0,0,0,0.00
2012-6-20,84.6,77.6,72.9,74.5,70.3,67.2,87,79,64,30.06,30.00,0,0,0,0.95
2012-6-21,86.8,83.1,77.4,76.3,73.8,71.5,83,74,66,29.98,29.90,0,0,0,0.02
2012-6-22,84.2,80.1,76.7,78.3,74.6,71.8,87,83,77,29.92,29.87,0,0,0,1.98
2012-6-23,84.6,82.4,79.0,75.8,74.4,72.7,84,77,72,29.97,29.94,0,0,0,0.00
2012-6-24,78.8,78.4,77.8,73.3,73.0,72.7,85,83,82,29.96,29.93,0,0,0,0.02
2012-6-25,80.6,79.4,78.3,74.4,73.4,72.2,85,82,80,29.72,29.66,0,0,0,0.06
2012-6-26,82.4,80.0,77.8,76.5,74.3,72.7,85,83,79,29.66,29.56,0,0,0,0.98
2012-6-27,78.7,78.7,78.7,73.8,73.8,73.8,85,85,85,29.61,29.61,0,0,0,0.00
2012-7-5,0.0,0.0,0.0,0.0,0.0,0.0,0,0,100,30.04,30.02,0,0,0,0.00
2012-7-6,0.0,0.0,0.0,0.0,0.0,0.0,0,0,100,30.06,29.97,0,0,0,0.00
2012-7-7,0.0,0.0,0.0,0.0,0.0,0.0,0,0,100,30.08,30.01,0,0,0,0.00
2012-7-8,0.0,0.0,0.0,0.0,0.0,0.0,0,0,100,30.10,30.00,0,0,0,0.00
2012-7-9,0.0,0.0,0.0,0.0,0.0,0.0,0,0,100,30.04,29.95,0,0,0,0.00
2012-7-10,0.0,0.0,0.0,0.0,0.0,0.0,0,0,100,30.04,29.95,0,0,0,0.00
2012-7-11,0.0,0.0,0.0,0.0,0.0,0.0,0,0,100,30.07,29.96,0,0,0,0.00
2012-7-12,0.0,0.0,0.0,0.0,0.0,0.0,0,0,100,30.04,29.94,0,0,0,0.00
2012-7-13,0.0,0.0,0.0,0.0,0.0,0.0,0,0,100,30.08,30.00,0,0,0,0.00
2012-7-14,0.0,0.0,0.0,0.0,0.0,0.0,0,0,100,30.11,30.03,0,0,0,0.00
2012-7-15,0.0,0.0,0.0,0.0,0.0,0.0,0,0,100,30.12,30.03,0,0,0,0.00
2012-7-16,0.0,0.0,0.0,0.0,0.0,0.0,0,0,100,30.08,29.96,0,0,0,0.00
2012-7-17,0.0,0.0,0.0,0.0,0.0,0.0,0,0,100,30.03,29.95,0,0,0,0.00
2012-7-18,0.0,0.0,0.0,0.0,0.0,0.0,0,0,100,30.12,29.99,0,0,0,0.00
2012-7-19,0.0,0.0,0.0,0.0,0.0,0.0,0,0,100,30.16,30.07,0,0,0,0.00
2012-7-20,0.0,0.0,0.0,0.0,0.0,0.0,0,0,100,30.13,30.03,0,0,0,0.00
2012-7-21,0.0,0.0,0.0,0.0,0.0,0.0,0,0,100,30.11,30.03,0,0,0,0.00
2012-7-22,0.0,0.0,0.0,0.0,0.0,0.0,0,0,100,30.15,30.08,0,0,0,0.00
2012-7-25,0.0,0.0,0.0,0.0,0.0,0.0,0,0,100,29.99,29.98,0,0,0,0.00
2012-7-26,0.0,0.0,0.0,0.0,0.0,0.0,0,0,100,30.03,29.95,0,0,0,0.00
2012-7-27,0.0,0.0,0.0,0.0,0.0,0.0,0,0,100,30.08,29.98,0,0,0,0.00
2012-8-4,90.2,85.2,80.3,79.1,75.0,0.0,82,73,57,30.05,29.96,0,0,0,0.04
2012-8-5,90.9,83.6,78.1,78.8,76.0,73.4,87,78,65,30.11,30.01,0,0,0,0.06
2012-8-6,95.4,83.4,77.0,80.2,75.8,72.9,87,78,58,30.10,29.98,0,0,0,0.24
2012-8-7,95.0,83.5,76.5,80.2,75.4,72.3,88,77,56,30.04,29.95,0,0,0,1.33
2012-8-8,97.2,84.4,76.1,81.5,75.4,71.1,88,76,54,30.07,29.95,0,0,0,3.48
2012-8-9,96.5,82.9,73.8,79.7,74.2,70.2,89,76,54,30.03,29.90,0,0,0,3.38
2012-8-10,96.8,84.6,76.9,80.3,75.2,72.2,88,74,54,29.99,29.90,0,0,0,0.00
2012-8-11,94.3,83.6,76.1,77.5,74.6,71.6,88,75,55,30.00,29.89,0,0,0,0.00
2012-8-12,94.9,82.6,76.1,79.2,75.0,71.8,88,78,55,30.04,29.95,0,0,0,0.97
2012-8-13,98.1,83.2,76.1,79.8,75.7,72.7,89,79,52,30.07,29.99,0,0,0,0.00
2012-8-14,97.2,83.5,76.3,78.9,74.2,71.2,89,75,50,30.04,29.94,0,0,0,0.00
2012-8-15,97.9,85.0,74.9,80.2,75.1,70.5,89,73,52,30.04,29.94,0,0,0,4.81
2012-8-16,95.2,82.9,75.2,80.4,74.7,70.9,89,77,58,30.07,29.97,0,0,0,0.02
2012-8-17,90.5,80.4,76.3,79.9,74.5,72.2,89,83,67,30.03,29.97,0,0,0,0.33
2012-8-19,97.2,84.9,76.9,80.9,76.2,72.7,87,76,56,29.98,29.88,0,0,0,1.73
2012-8-20,100.1,85.4,76.1,81.1,76.6,72.5,89,76,53,30.02,29.85,0,0,0,0.26
2012-8-21,99.0,79.9,74.2,79.6,72.9,69.0,89,80,49,30.10,29.94,0,0,0,1.53
2012-8-22,90.4,79.4,74.0,78.8,72.4,70.1,89,80,62,30.10,29.99,0,0,0,0.05
2012-8-23,95.0,82.3,74.5,77.7,73.3,70.5,89,75,54,30.10,30.03,0,0,0,0.00
2012-8-24,96.1,82.3,75.1,78.1,72.8,70.7,87,74,54,30.07,29.97,0,0,0,0.00
2012-8-25,87.5,79.0,76.1,77.4,73.0,71.5,89,82,67,30.05,29.97,0,0,0,1.60
2012-8-26,85.0,80.9,76.3,78.2,75.9,72.2,89,85,78,30.01,29.88,0,0,0,0.74
2012-8-28,91.1,83.0,77.0,80.8,76.7,72.9,88,81,72,30.00,29.90,0,0,0,0.57
2012-8-29,95.6,86.5,76.7,79.8,76.3,73.1,89,73,58,30.00,29.90,0,0,0,0.58
2012-8-30,97.2,83.0,75.8,80.8,75.6,72.4,89,79,55,30.12,29.95,0,0,0,0.02
2012-8-31,96.7,84.1,75.2,79.0,75.1,71.4,89,75,55,30.18,30.09,0,0,0,0.02
2012-9-1,99.7,84.3,76.0,78.3,74.3,71.6,89,74,47,30.16,30.05,0,0,0,0.00
2012-9-2,97.2,82.2,72.9,75.6,71.3,68.1,89,71,44,30.09,29.98,0,0,0,0.00
2012-9-3,100.6,82.3,71.6,75.4,70.5,66.5,87,70,40,30.06,29.95,0,0,0,0.00
2012-9-4,98.6,81.4,74.2,77.2,71.8,67.5,88,74,44,30.02,29.91,0,0,0,0.03
2012-9-5,100.3,87.1,73.4,77.0,72.8,70.0,91,65,42,29.98,29.89,0,0,0,0.73
2012-9-6,92.3,88.5,77.6,81.9,78.8,73.4,87,73,68,29.99,29.94,0,0,0,2.31
2012-9-7,94.1,85.8,75.6,80.3,76.1,71.8,88,73,53,29.98,29.89,0,0,0,0.09
2012-9-8,93.6,86.2,76.7,79.6,73.9,67.7,85,68,52,29.95,29.84,0,0,0,0.02
2012-9-9,90.4,83.0,76.7,78.5,75.2,72.0,87,78,65,29.90,29.87,0,0,0,0.28
2012-9-10,82.8,82.2,81.7,76.8,76.1,75.4,82,82,81,29.98,29.98,0,0,0,0.00
2012-9-11,88.6,80.9,72.0,73.5,70.0,66.9,85,70,56,30.13,30.08,0,0,0,0.00
2012-9-12,90.4,84.0,76.1,74.6,71.5,69.5,84,67,51,30.13,30.07,0,0,0,0.00
2012-9-13,90.9,85.2,76.7,75.0,71.8,68.2,85,65,51,30.12,30.03,0,0,0,0.00
2012-9-14,89.6,82.9,77.4,77.6,74.2,71.8,84,75,61,30.07,30.00,0,0,0,0.09
2012-9-15,91.1,87.2,78.1,76.9,74.5,71.6,87,67,56,30.06,30.01,0,0,0,0.73
2012-9-16,90.9,83.0,74.0,78.8,74.2,70.2,88,75,60,30.07,29.97,0,0,0,0.04
2012-9-17,92.5,87.6,79.6,80.3,75.4,72.5,88,68,55,30.01,29.90,0,0,0,0.56
2012-9-18,87.3,81.5,75.2,79.4,76.1,72.8,92,84,73,29.93,29.90,0,0,0,1.37
2012-9-19,88.7,79.4,74.5,78.3,74.1,70.7,88,84,67,30.01,29.94,0,0,0,0.39
2012-9-20,90.0,83.7,73.6,76.1,72.8,66.4,79,70,61,30.03,29.93,0,0,0,0.11
2012-9-21,90.7,84.7,75.6,74.8,70.8,63.8,68,63,58,30.00,29.91,0,0,0,0.30
2012-9-22,87.7,82.8,76.0,71.6,65.6,58.2,60,56,54,30.03,29.95,0,0,0,0.13
2012-9-23,95.4,85.8,74.0,73.3,65.6,51.8,60,51,42,30.06,29.98,0,0,0,0.00
2012-9-24,88.9,77.6,67.3,66.0,59.0,46.7,62,53,42,30.10,30.01,0,0,0,0.00
2012-9-25,88.6,78.9,65.5,72.2,60.1,44.6,61,53,45,30.08,30.03,0,0,0,0.00
2012-9-26,95.0,85.7,75.2,73.5,65.1,50.0,60,51,37,30.11,30.03,0,0,0,0.00
2012-9-27,93.6,84.6,75.2,74.6,62.6,44.0,59,49,33,30.11,30.01,0,0,0,0.00
2012-9-28,89.6,82.8,76.7,72.9,58.3,41.0,59,44,28,30.04,29.95,0,0,0,0.02
2012-9-29,92.0,85.2,76.0,74.5,62.0,34.1,59,47,22,29.98,29.85,0,0,0,0.00
2012-9-30,94.3,86.0,77.9,76.1,60.4,30.3,58,44,18,29.86,29.76,0,0,0,0.00
2012-10-1,92.2,85.5,77.0,74.9,56.0,16.4,58,41,1,29.83,29.71,0,0,0,2.81
2012-10-2,88.2,86.7,82.3,70.7,66.4,60.8,57,51,42,29.90,29.87,0,0,0,1.51
2012-10-3,92.9,86.9,78.1,76.0,58.3,17.1,61,42,10,30.10,30.05,0,0,0,0.52
2012-10-4,92.2,86.7,75.2,73.6,53.0,14.9,56,34,1,30.17,30.05,0,0,0,0.08
2012-10-5,87.7,85.3,80.3,54.7,33.0,18.8,33,14,1,30.05,29.99,0,0,0,0.42
2012-10-6,90.9,86.9,78.1,64.5,36.3,-10.3,44,18,1,29.93,29.87,0,0,0,0.11
2012-10-7,87.8,85.8,81.4,53.2,31.6,19.6,31,13,1,29.93,29.90,0,0,0,1.96
2012-10-8,86.9,84.5,79.0,27.1,22.1,17.8,12,2,1,30.02,29.92,0,0,0,0.00
2012-10-9,85.7,80.7,72.9,30.9,19.2,13.2,15,2,1,30.05,29.98,0,0,0,0.02
2012-10-10,87.7,79.8,67.0,64.3,37.0,8.6,46,22,1,30.11,30.02,0,0,0,0.00
2012-10-11,85.9,78.8,67.9,59.3,34.9,9.4,42,20,1,30.16,30.11,0,0,0,0.00
2012-10-12,86.4,79.1,68.0,62.6,42.0,9.5,47,28,1,30.18,30.09,0,0,0,0.00
2012-10-13,85.7,77.4,65.5,61.6,32.2,7.6,45,18,1,30.18,30.10,0,0,0,0.00
2012-10-14,87.5,81.5,68.4,57.0,32.3,9.8,36,15,1,30.13,30.00,0,0,0,0.00
2012-10-15,90.5,83.2,73.1,62.9,30.8,13.4,41,13,1,29.94,29.81,0,0,0,0.00
2012-10-16,86.6,78.4,66.1,60.5,33.8,7.9,42,20,1,29.88,29.79,0,0,0,0.00
2012-10-17,81.7,78.7,66.1,20.0,17.6,7.9,1,1,1,29.89,29.80,0,0,0,0.00
2012-10-18,91.6,86.2,77.8,64.5,39.1,16.9,41,19,1,29.87,29.77,0,0,0,0.00
2012-10-19,90.9,85.6,76.7,66.0,46.5,16.1,45,27,1,29.87,29.78,0,0,0,0.00
2012-10-20,86.8,73.8,59.2,58.1,35.7,2.7,46,26,1,29.96,29.85,0,0,0,0.00
2012-10-21,83.5,71.6,55.4,58.3,29.4,-0.2,44,21,1,30.06,29.95,0,0,0,0.00
2012-10-22,85.5,76.0,60.7,57.0,28.8,3.8,39,16,1,30.08,30.01,0,0,0,0.00
2012-10-23,85.1,76.5,63.2,51.9,28.8,5.8,33,15,1,30.07,29.98,0,0,0,0.00
2012-10-24,87.5,81.6,71.5,57.0,32.0,12.1,36,15,1,30.02,29.92,0,0,0,0.02
2012-10-25,82.3,79.1,75.6,20.3,17.9,15.2,1,1,1,29.90,29.84,0,0,0,0.11
2012-10-26,82.1,77.6,68.9,25.2,17.0,10.2,13,2,1,29.72,29.59,0,0,0,1.39
2012-10-27,71.8,68.5,65.0,12.4,9.8,7.1,1,1,1,29.65,29.50,0,0,0,0.82
2012-10-28,76.7,67.7,58.3,37.3,11.1,2.0,25,4,1,29.77,29.64,0,0,0,0.00
2012-10-29,70.0,58.1,49.5,44.6,18.6,-4.8,46,22,1,29.84,29.70,0,0,0,0.00
2012-10-30,68.2,56.0,45.7,41.6,31.1,-3.8,50,40,1,29.93,29.79,0,0,0,0.00
2012-10-31,72.5,56.7,42.1,45.6,14.4,-10.6,48,17,1,30.02,29.92,0,0,0,0.00
2012-11-1,81.4,69.3,56.2,55.4,24.7,0.4,41,17,1,30.00,29.90,0,0,0,0.00
2012-11-2,79.6,68.0,55.3,53.8,27.7,-0.4,44,22,1,30.08,29.99,0,0,0,0.00
2012-11-3,84.4,68.9,51.8,56.6,18.3,-3.1,39,10,1,30.10,30.03,0,0,0,0.00
2012-11-4,84.1,71.8,56.5,52.4,21.2,0.5,35,11,1,30.08,29.97,0,0,0,0.00
2012-11-5,81.2,70.9,59.4,40.4,14.3,-6.4,25,5,1,29.97,29.89,0,0,0,0.00
2012-11-6,78.7,64.8,53.1,37.3,10.8,-2.1,23,6,1,29.91,29.79,0,0,0,0.02
2012-11-7,68.0,58.0,49.9,41.1,10.4,-4.6,39,11,1,29.97,29.82,0,0,0,0.02
2012-11-8,68.6,53.5,42.1,44.6,7.1,-10.6,42,12,1,30.16,29.96,0,0,0,0.00
2012-11-9,73.8,54.3,38.0,46.2,8.0,-13.8,45,12,1,30.25,30.15,0,0,0,0.00
2012-11-10,76.5,58.2,41.8,41.8,5.7,-10.8,30,6,1,30.30,30.21,0,0,0,0.00
2012-11-11,79.9,68.1,53.1,25.6,9.6,-2.1,15,3,1,30.29,30.22,0,0,0,0.05
2012-11-12,79.7,71.1,60.8,18.4,11.8,4.0,1,1,1,30.23,30.15,0,0,0,0.02
2012-11-13,81.0,72.3,61.7,20.6,12.8,4.7,11,2,1,30.16,30.08,0,0,0,0.00
2012-11-14,75.4,72.2,66.4,15.1,12.7,8.3,1,1,1,30.17,30.08,0,0,0,0.71
2012-11-15,61.2,60.1,59.8,4.2,3.3,3.1,1,1,1,30.11,30.08,0,0,0,0.09
2012-11-16,70.0,62.6,55.6,40.8,10.1,-0.1,35,7,1,30.15,30.08,0,0,0,0.00
2012-11-17,80.3,67.3,58.3,56.9,17.3,2.0,46,11,1,30.15,30.06,0,0,0,0.00
2012-11-18,71.8,62.1,51.1,40.3,7.9,-3.6,32,5,1,30.17,30.09,0,0,0,0.00
2012-11-19,57.4,54.9,50.4,1.3,-0.6,-4.2,1,1,1,30.14,30.04,0,0,0,0.00
2012-11-20,72.9,60.7,50.6,50.8,12.6,-4.0,46,12,1,30.04,29.97,0,0,0,0.00
2012-11-21,72.7,59.9,48.6,52.5,20.2,-5.5,52,22,1,30.06,29.97,0,0,0,0.00
2012-11-22,72.0,54.5,41.9,49.5,15.8,-10.7,55,22,1,30.16,30.03,0,0,0,0.06
2012-11-23,73.1,52.2,37.4,46.6,9.4,-14.2,52,16,1,30.18,30.06,0,0,0,0.00
2012-11-24,72.0,54.6,43.6,52.4,11.0,-9.5,51,16,1,30.08,29.97,0,0,0,0.26
2012-11-25,70.6,52.9,38.9,49.7,11.1,-13.0,52,17,1,30.14,30.06,0,0,0,0.00
2012-11-26,78.3,55.7,39.2,57.1,9.8,-12.8,49,13,1,30.21,30.11,0,0,0,0.00
2012-11-27,80.3,63.1,51.1,58.8,14.5,-3.6,48,11,1,30.17,30.06,0,0,0,0.00
2012-11-28,66.1,58.9,52.9,7.9,2.4,-2.1,1,1,1,30.26,30.09,0,0,0,0.00
2012-11-29,76.7,61.9,51.3,55.4,19.4,-3.5,50,19,1,30.27,30.21,0,0,0,0.00
2012-11-30,77.0,59.8,47.9,55.8,13.9,-6.0,50,14,1,30.25,30.16,0,0,0,0.00
2012-12-1,74.2,61.6,51.5,26.2,4.9,-3.3,18,2,1,30.24,30.17,0,0,0,0.00
2012-12-2,76.9,67.0,58.5,45.3,12.5,2.1,34,6,1,30.25,30.18,0,0,0,0.00
2012-12-3,77.8,67.6,57.2,55.4,20.2,1.1,47,14,1,30.27,30.19,0,0,0,0.00
2012-12-4,77.9,61.9,51.7,57.1,15.8,-3.2,50,14,1,30.28,30.18,0,0,0,0.00
2012-12-5,73.3,63.4,53.1,13.5,5.9,-2.1,1,1,1,30.18,30.04,0,0,0,0.39
2012-12-6,79.4,67.0,57.2,56.2,17.4,1.1,47,11,1,30.05,29.92,0,0,0,0.00
2012-12-7,74.9,69.0,63.7,14.7,10.3,6.1,1,1,1,29.99,29.91,0,0,0,0.00
2012-12-8,77.6,72.0,66.6,21.8,12.6,8.4,13,2,1,30.05,29.96,0,0,0,0.00
2012-12-9,79.9,72.0,63.2,58.4,25.5,5.8,48,16,1,30.03,29.98,0,0,0,0.00
2012-12-10,79.4,77.2,74.3,28.2,16.6,14.3,16,1,1,29.95,29.81,0,0,0,0.28
2012-12-11,81.5,75.1,70.6,54.2,19.4,11.3,39,7,1,30.00,29.90,0,0,0,0.44
2012-12-12,77.0,74.2,66.6,16.4,14.2,8.4,1,1,1,30.03,29.98,0,0,0,0.97
2012-12-13,59.8,56.4,54.0,3.1,0.5,-1.3,1,1,1,30.18,30.13,0,0,0,0.00
2012-12-14,69.8,61.8,55.6,51.0,17.7,-0.1,51,17,1,30.21,30.10,0,0,0,0.00
2012-12-15,78.8,68.6,58.9,61.3,30.6,2.3,57,27,1,30.12,30.04,0,0,0,0.00
2012-12-16,77.4,71.2,62.8,57.6,28.3,1.4,53,21,1,29.99,29.93,0,0,0,0.00
2012-12-17,80.5,72.5,61.4,62.6,39.9,4.4,56,34,1,29.92,29.83,0,0,0,0.00
2012-12-18,81.2,68.5,49.9,62.9,43.5,-4.6,59,43,1,30.01,29.89,0,0,0,0.00
2012-12-19,77.0,58.8,42.5,55.7,18.9,-10.3,57,21,1,30.10,30.00,0,0,0,0.00
2012-12-20,80.3,71.0,51.1,61.1,37.9,-3.6,55,33,1,30.06,29.90,0,0,0,0.05
2012-12-21,60.7,52.7,42.8,37.0,28.4,-1.2,60,42,1,30.17,29.92,0,0,0,0.56
2012-12-22,62.6,46.0,35.6,37.6,24.9,5.5,59,45,25,30.26,30.16,0,0,0,0.00
2012-12-23,66.2,47.2,30.1,42.3,15.0,-20.0,56,28,1,30.25,30.12,0,0,0,0.00
2012-12-24,68.8,49.3,43.6,50.8,4.3,-9.5,53,13,1,30.12,30.07,0,0,0,0.00
2012-12-25,74.0,64.9,56.9,55.2,22.2,0.8,52,20,1,29.93,29.89,0,0,0,0.00
2012-12-26,57.6,57.6,57.6,1.4,1.4,1.4,1,1,1,29.90,29.90,0,0,0,0.00
2012-12-28,70.4,64.7,60.1,52.0,27.7,3.4,56,28,1,29.89,29.87,0,0,1,0.20
2012-12-29,74.5,62.1,49.3,53.6,31.3,-13.5,57,36,1,30.04,29.80,5,1,7,0.00
2012-12-30,56.5,47.4,38.9,40.5,23.1,-7.5,57,41,1,30.27,30.04,8,1,8,0.00
2012-12-31,74.7,56.3,42.3,55.9,14.7,-10.4,54,19,1,30.26,30.10,4,0,4,0.00
2013-1-1,77.8,62.0,48.8,58.4,19.7,-5.4,52,19,1,30.13,29.95,3,0,5,0.00